Buffalo, WY

1:07 PM MST on December 02, 2016 (GMT -0700)
Johnson County

Weather History for KBYG - August, 2013

Change the Weather History Date:

Sunday, August 25, 2013

  Actual Average Record
Temperature  
Mean Temperature 75 °F 68 °F  
Max Temperature 89 °F 82 °F 97 °F (2008)
Min Temperature 61 °F 54 °F 45 °F (2014)
Degree Days  
Heating Degree Days 0 2  
Month to date heating degree days 0 27  
Since 1 June heating degree days 101 215  
Since 1 July heating degree days 1 52  
Cooling Degree Days 10 4  
Month to date cooling degree days 198 160  
Year to date cooling degree days 543 421  
Since 1 June cooling degree days 533 414  
Growing Degree Days 25 (Base 50)    
Moisture  
Dew Point 45 °F    
Average Humidity 37    
Maximum Humidity 56    
Minimum Humidity 18    
Precipitation  
Precipitation 0.00 in 0.02 in 0.04 in (2006)
Month to date precipitation 0.22 0.71  
Year to date precipitation 4.41 10.17  
Sea Level Pressure  
Sea Level Pressure 29.91 in    
Wind  
Wind Speed 5 mph (WSW)    
Max Wind Speed 13 mph    
Max Gust Speed 18 mph    
Visibility 10 miles    
Events      
T = Trace of Precipitation, MM = Missing Value Source: NWS Daily Summary

Daily Weather History Graph

Daily Weather History Graph

Search for Another Location

Airport or City:

Trip Planner

Search our weather history database for the weather conditions in past years. The results will help you decide how hot, cold, wet, or windy it might be!

Date:

Astronomy

Aug. 25, 2013 Rise Set
Actual Time 6:21 AM MDT 7:54 PM MDT
Civil Twilight 5:51 AM MDT 8:25 PM MDT
Nautical Twilight 5:14 AM MDT 9:02 PM MDT
Astronomical Twilight 4:34 AM MDT 9:41 PM MDT
Moon 10:13 PM MDT (8/25) 11:40 AM MDT (8/25)
Length of Visible Light 14h 34m
Length of Day
13h 33m
Waning Gibbous, 75% of the Moon is Illuminated
Aug 25
Waning Gibbous
Aug 28
Last Quarter
Sep 5
New
Sep 12
First Quarter
Sep 19
Full

Hourly Weather History & Observations

Time (MDT) Temp. Dew Point Humidity Pressure Visibility Wind Dir Wind Speed Gust Speed Precip Events Conditions
12:53 AM 72.0 °F 48.0 °F 43% 29.91 in 10.0 mi WSW 5.8 mph - N/A   Overcast
1:53 AM 69.1 °F 48.0 °F 47% 29.90 in 10.0 mi South 3.5 mph - N/A   Partly Cloudy
2:53 AM 66.9 °F 46.9 °F 49% 29.90 in 10.0 mi WSW 5.8 mph - N/A   Clear
3:53 AM 69.1 °F 46.9 °F 45% 29.90 in 10.0 mi West 3.5 mph - N/A   Clear
4:53 AM 66.0 °F 46.9 °F 50% 29.91 in 10.0 mi Calm Calm - N/A   Clear
5:53 AM 62.1 °F 46.9 °F 58% 29.93 in 10.0 mi WNW 8.1 mph - N/A   Clear
6:53 AM 68.0 °F 46.0 °F 45% 29.93 in 10.0 mi NNW 3.5 mph - N/A   Clear
7:53 AM 66.9 °F 48.9 °F 52% 29.94 in 10.0 mi South 3.5 mph - N/A   Clear
8:53 AM 71.1 °F 48.9 °F 45% 29.95 in 10.0 mi South 3.5 mph - N/A   Clear
9:53 AM 71.1 °F 48.9 °F 45% 29.96 in 10.0 mi Calm Calm - N/A   Partly Cloudy
10:53 AM 73.9 °F 50.0 °F 43% 29.96 in 10.0 mi Calm Calm - N/A   Mostly Cloudy
11:53 AM 75.9 °F 50.0 °F 40% 29.96 in 10.0 mi NNW 8.1 mph - N/A   Overcast
12:53 PM 82.9 °F 44.1 °F 25% 29.92 in 10.0 mi NNW 5.8 mph - N/A   Partly Cloudy
1:53 PM 86.0 °F 42.1 °F 21% 29.90 in 10.0 mi East 9.2 mph 17.3 mph N/A   Clear
2:53 PM 88.0 °F 39.9 °F 18% 29.88 in 10.0 mi Variable 6.9 mph 18.4 mph N/A   Clear
3:53 PM 87.1 °F 39.9 °F 19% 29.87 in 10.0 mi East 5.8 mph - N/A   Scattered Clouds
4:53 PM 87.1 °F 39.9 °F 19% 29.87 in 10.0 mi SE 5.8 mph - N/A   Mostly Cloudy
5:53 PM 87.1 °F 39.0 °F 18% 29.87 in 10.0 mi SE 3.5 mph - N/A   Partly Cloudy
6:53 PM 86.0 °F 39.9 °F 20% 29.86 in 10.0 mi ENE 4.6 mph - N/A   Clear
7:53 PM 81.0 °F 41.0 °F 24% 29.88 in 10.0 mi NNE 3.5 mph - N/A   Clear
8:53 PM 75.9 °F 42.1 °F 30% 29.88 in 10.0 mi West 9.2 mph - N/A   Clear
9:53 PM 73.0 °F 42.1 °F 33% 29.90 in 10.0 mi West 8.1 mph - N/A   Clear
10:53 PM 75.0 °F 42.1 °F 31% 29.88 in 10.0 mi SW 5.8 mph - N/A   Clear
11:53 PM 75.9 °F 39.9 °F 27% 29.88 in 10.0 mi SW 5.8 mph - N/A   Clear